Showing default

ORBCOMM FM 110, 41182

Orbit data source: Space-Track

ORBCOMM FM 110, 41182 is a payload satellite owned by Orbcomm (US) in LEO that was launched on Tue, 22 Dec 2015 UTC via an FALCON 9 launch vehicle from the Air Force Eastern Test Range (AFETR). Payload-class satellites include a variety of spacecraft equipped with specific instruments for various scientific and technological missions. These include communications satellites like Starlink; space stations such as the ISS; scientific satellites like the Hubble; Earth observation satellites from companies like Planet Labs, Umbra, and HawkEye 360; GPS; miniature CubeSats for education and research; and military/defense satellites.

Loading next visibility...
Identifier
41182, 2015-081D
Orbit
LEO
Country
Flag of USUS / ORB
Related business
Manufacturer
SNC Louisville
Mission
Operational Commercial Communications
Bus & Motor
SN-100A, Unknown motor
Mass
172 kg wet, 158 kg dry
Launch date (UTC)
2015-12-22 (10 years ago)
Launch vehicle
FALCON 9
Launch site
Air Force Eastern Test Range (AFETR)
Object type
Payload
Rocket body
Debris
Shape & HBR
Box + 1 Pan + 1 Ant, 5.3 m
Radar Cross Section
2.222 m², Medium (>0.1 m² and < 1m²)

Expand to show TLE details & history
Last TLE update: 8 hours ago

TLE from 8 hours ago
0 ORBCOMM FM 110
1 41182U 15081D   26104.95792009  .00000283  00000-0  96214-4 0  9994
2 41182  47.0025 300.3887 0002794 150.4592 209.6452 14.58806323548390
Epoch: 2026-04-14T22:59Z
TLE epoch observation values (Epoch: 2026-04-14T22:59:24.295Z)
Latitude
-0.00003°
Longitude
112.41073°
Altitude
698.965 km
Speed
7.507 km/s
True Right ascension
20h 01m 33s
True Declination
0° 00' 00"
Sunlit
Object was in daylight at epoch
Visualization orbit readout
Latitude
Unknown
Longitude
Unknown
Altitude
Unknown
Speed
Unknown
Apparent Right ascension
Unknown
Apparent Declination
Unknown
Sunlit
N/A
Visualization observer readout
Local Sidereal Time
13:10:02
Azimuth
Unknown
Elevation
Unknown
Doppler factor
Unknown
Orbital elements
Apogee altitude
700.243 km
Perigee altitude
696.288 km
Semi-major axis
7,076.403 km
Eccentricity
0.00028
Inclination
47.0025°
RAAN
300.3887°
Arg. of periapsis
150.4592°
True anomaly
209.62937°
Mean anomaly
209.6452°
Eccentric anomaly
209.63728°
Mean motion
3.64606 °/min
Orbital period
98.74 mins
BSTAR
0.000096214
Loading maneuver chart data...
Computing Atmospheric mass density...
Loading historical data...
Loading historical data...
Loading historical data...
Loading historical data...
Loading historical data...
Loading historical data...
Loading historical data...

Documentation

Showing up to 5 results
|